Zurück zum Katalog

THORAD AGENA D DEB

AktivPO
NORAD 4754·DEBRIS·🇺🇸 United States

Gestartet Apr 8, 1970 von Vandenberg Space Force Base

Loading…

Nächste Überflüge (nächste 24 Stunden)

TLE

AktuellSource: Space-Track

Epoche: Sep 13, 2026, 20:35 UTC

1 04754U 70025DC  26256.85781203  .00004235  00000-0  14320-2 0  9995
2 04754  99.5907 230.4229 0016504  24.2111 335.9844 14.37401266846547

Verfolge THORAD AGENA D DEB in Echtzeit mit AllMySat

Download on the App Store